Location: Unspecified
(52.0178°N, 0.0000°E)
Time: 09:32:29
(UTC+00:00)

UNISAT 6 - Visible Passes

Search period start: 18 August 2019 00:00
Search period end: 28 August 2019 00:00
Orbit: 608 x 688 km, 97.7° (Epoch: 17 August)

Date Brightness Start Highest point End Pass type
(mag) Time Alt. Az. Time Alt. Az. Time Alt. Az.
18 Aug ? 20:39:23 10° NNE 20:43:58 52° E 20:48:26 10° S visible
18 Aug ? 22:16:34 10° N 22:20:23 25° WNW 22:24:08 10° WSW visible
19 Aug ? 21:05:20 10° NNE 21:10:02 88° E 21:14:37 10° SSW visible
19 Aug ? 22:43:10 10° NNW 22:46:06 17° NW 22:48:59 10° W visible
20 Aug ? 19:55:20 10° NE 19:58:58 22° E 20:02:31 10° SE visible
20 Aug ? 21:31:26 10° N 21:36:00 56° WNW 21:40:29 10° SSW visible
20 Aug ? 23:10:35 10° NW 23:11:43 11° NW 23:12:51 10° WNW visible
21 Aug ? 20:20:54 10° NNE 20:25:13 36° E 20:29:25 10° SSE visible
21 Aug ? 21:57:41 10° N 22:01:53 34° WNW 22:06:00 10° SW visible
22 Aug ? 20:46:44 10° NNE 20:51:22 61° E 20:55:40 11° S visible
22 Aug ? 22:24:06 10° N 22:27:40 22° WNW 22:31:10 10° WSW visible
23 Aug ? 19:37:21 10° NE 19:40:04 15° E 19:42:47 10° ESE visible
23 Aug ? 21:12:44 10° NNE 21:17:24 80° WNW 21:21:47 11° SSW visible
23 Aug ? 22:50:52 10° NNW 22:53:21 15° NW 22:55:48 10° W visible
24 Aug ? 20:02:34 10° NE 20:06:25 25° E 20:10:08 10° SSE visible
24 Aug ? 21:38:53 10° N 21:43:20 48° WNW 21:47:41 10° SW visible
25 Aug ? 20:28:13 10° NNE 20:32:37 42° E 20:36:15 14° SSE visible
25 Aug ? 22:05:11 10° N 22:09:11 30° WNW 22:13:06 10° WSW visible
26 Aug ? 20:54:06 10° NNE 20:58:44 72° ESE 21:02:21 16° S visible
26 Aug ? 22:31:41 10° NNW 22:34:56 19° WNW 22:38:08 10° WSW visible
27 Aug ? 19:44:26 10° NE 19:47:32 18° E 19:50:34 10° SE visible
27 Aug ? 21:20:09 10° N 21:24:45 68° WNW 21:28:27 15° SSW visible
27 Aug ? 22:58:39 10° NNW 23:00:36 13° NW 23:02:30 10° WNW visible
